Regional Weather Roundup
Issued by NWS

Home | Current Version | Previous Version | Graphics & Text | Print | Product List | Glossary Off
Versions: 1 2 3 4 5 6 7 8 9 10 11 12 13 14 15 16 17 18 19 20 21 22 23 24 25 26 27 28 29 30 31 32 33 34 35 36 37 38 39 40 41 42 43 44 45 46 47 48 49 50

000
ASUS45 KBOU 202207
RWRCO

WEATHER ROUNDUP FOR COLORADO
NATIONAL WEATHER SERVICE DENVER/BOULDER CO
400 PM MDT MON APR 20 2015

NOTE: "FAIR" INDICATES FEW OR NO CLOUDS BELOW 12000 FEET WITH NO
SIGNIFICANT WEATHER AND/OR OBSTRUCTIONS TO VISIBILITY.

COZ001>005-013-030-031-202300-
...NORTHWEST COLORADO...

CITY           SKY/WX    TMP DP  RH WIND       PRES   REMARKS
CRAIG          PTSUNNY   51  36  56 VRB3      29.95F
HAYDEN         PTSUNNY   46  32  57 NW7       29.95F
MEEKER         MOSUNNY   55  32  41 VRB5      29.93F
MOUNT WERNER   NOT AVBL
STEAMBOAT SPGS CLOUDY    45  28  51 W14       29.94S
WALDEN         MOSUNNY   41  27  56 NW14      29.96F
$$

COZ006>008-011-202300-
...WEST CENTRAL VALLEYS...

CITY           SKY/WX    TMP DP  RH WIND       PRES   REMARKS
GRAND JUNCTION MOSUNNY   65  29  25 CALM      29.88F
MONTROSE       MOSUNNY   60  31  33 SW5       29.94F
EAGLE          MOSUNNY   52  28  40 NW12G22   29.96S
RIFLE          PTSUNNY   60  31  33 N10       29.91S
DELTA          MOSUNNY   68  28  22 NW6       29.90F
NUCLA          MOSUNNY   64  21  19 NW12G20   29.94F
$$

COZ017>023-064>068-202300-
...SOUTHWEST COLORADO...

CITY           SKY/WX    TMP DP  RH WIND       PRES   REMARKS
DURANGO        CLOUDY    59  22  24 W23       29.92F
CORTEZ         PTSUNNY   62  22  21 W13G25    29.93F
PAGOSA SPRINGS CLOUDY    55  22  27 E5        29.93F
TELLURIDE      MOSUNNY   49  13  23 W23G31    30.04F
WOLF CREEK PAS CLOUDY    32  23  69 SW9G17    30.12F WCI  24
$$

COZ009-010-012-014-032>034-037-058>063-202300-
...CENTRAL COLORADO...

CITY           SKY/WX    TMP DP  RH WIND       PRES   REMARKS
ASPEN          PTSUNNY   48  23  37 N13G18    29.95F
BUENA VISTA    PTSUNNY   49  21  32 NW10G20   29.93F
COPPER MTN     NOT AVBL
BERTHOUD PASS  SNOW      19  10  68 NW33G40   30.01F VSB 1/2 WCI   0
COTTONWOOD PAS MOSUNNY   45  12  26 W14G28    29.98F
GUNNISON       PTSUNNY   48  21  34 NW23G37   30.00S
KREMMLING      PTSUNNY   39  30  70 W16G30    29.98R
LEADVILLE      FLURRIES  33  22  63 N17       30.00S WCI  22
MONARCH PASS   LGT SNOW  27  23  86 W38G51    30.15F WCI   9
SALIDA         MOSUNNY   56  19  24 NW6       29.98F
SUNLIGHT       CLOUDY    34  27  75 W6        30.10S WCI  29
WILKERSON PASS LGT SNOW  32  23  69 W8G20     30.05F WCI  25
$$

COZ069>075-202300-
...SAN LUIS VALLEY/SANGRE DE CRISTO MOUNTAINS...

CITY           SKY/WX    TMP DP  RH WIND       PRES   REMARKS
ALAMOSA        PTSUNNY   55  27  34 SW12G18   29.94F
LA VETA PASS   PTSUNNY   37  27  65 S6        30.01S
SAGUACHE       PTSUNNY   54  21  28 NW18G30   29.94S
$$

COZ035-036-038>040-202300-
...NORTHERN COLORADO FRONT RANGE...

CITY           SKY/WX    TMP DP  RH WIND       PRES   REMARKS
DENVER INTL AP PTSUNNY   54  31  41 E9        29.90F
DMNS CITY PARK   N/A     56  28  33 NE7G13    29.90S
AURORA         NOT AVBL
FRONT RANGE AP PTSUNNY   54  32  43 N5        29.92F
ERIE MUNI ARPT MOSUNNY   55  31  39 N5        29.90F
BOULDER MUN AP PTSUNNY   52  32  46 E3        29.91R
CENTENNIAL     MOSUNNY   54  30  40 NE7       29.90F
BROOMFIELD     PTSUNNY   55  30  38 NE5       29.91F
FORT COLLINS   MOSUNNY   54  32  43 W6        29.92F
LONGMONT       PTSUNNY   58  31  36 N3        29.92F
$$

COZ041-046-047-076>085-087-088-202300-
...PIKES PEAK/PALMER DIVIDE AND SOUTHERN FOOTHILLS...

CITY           SKY/WX    TMP DP  RH WIND       PRES   REMARKS
COLO. SPRINGS  PTSUNNY   50  32  50 SW6       29.93R
A. F. ACADEMY  NOT AVBL
ELLICOTT       PTSUNNY  N/A N/A N/A VRB3      29.90F
FALCON         PTSUNNY   48  27  43 SW7       29.94S
FORT CARSON    NOT AVBL
LIMON          PTSUNNY   54  28  36 N13       29.90F
MONUMENT HILL  CLOUDY    46  27  46 N5G17     29.93R
TRINIDAD       PTSUNNY   58  36  43 S20       29.90S
$$

COZ042>045-048>051-090-091-202300-
...NORTHEAST COLORADO...

CITY           SKY/WX    TMP DP  RH WIND       PRES   REMARKS
GREELEY ARPT   PTSUNNY   54  30  40 NW3       29.91F
AKRON          MOSUNNY   54  25  32 N18       29.88F
BURLINGTON     CLOUDY    58  31  35 NW12      29.90F
WRAY           PTSUNNY   57  25  28 NW14      29.89F
STERLING       MOSUNNY   57  28  33 N15       29.87F
HOLYOKE        MOSUNNY   59  27  29 NW14G21   29.88F
FORT MORGAN    SUNNY     57  22  26 NW21G26   29.91R
$$

COZ086-089-092>099-202300-
...SOUTHEAST COLORADO...

CITY           SKY/WX    TMP DP  RH WIND       PRES   REMARKS
PUEBLO         MOSUNNY   58  27  30 VRB5G18   29.87F
LA JUNTA       SUNNY     59  32  36 E8        29.88F
LAMAR          SUNNY     61  33  35 VRB5      29.87F
SPRINGFIELD      N/A     62  31  31 SE6       29.86F
$$



USA.gov is the U.S. government's official web portal to all federal, state and local government web resources and services.